Location: Écuvilly
(49.6505°N, 2.9206°E)
Time: 17:32:32
(UTC+00:00)

SJ-7 - Pass Details

Date: 17 November 2025
Orbit: 500 x 523 km, 97.7° (Epoch: 09 December)

Event Time Altitude Azimuth Distance (km) Brightness Sun altitude
Rises 17:46:56 0° 155° (SSE) 2,586 7.6 -16.6°
Reaches altitude 10° 17:49:02 10° 151° (SSE) 1,706 6.6 -17.0°
Maximum altitude 17:52:38 58° 72° (ENE) 594 4.1 -17.6°
Drops below altitude 10° 17:56:16 10° 354° (N) 1,720 6.8 -18.1°
Sets 17:58:23 0° 350° (N) 2,611 7.8 -18.5°
